Weather History for KEWR - November, 2013

Change the Weather History Date:

Saturday, November 2, 2013

  Actual Average Record
Temperature  
Mean Temperature 60 °F 51 °F  
Max Temperature 68 °F 60 °F 84 °F (1950)
Min Temperature 52 °F 43 °F 29 °F (1976)
Degree Days  
Heating Degree Days 5 14  
Month to date heating degree days 5 28  
Since 1 July heating degree days 262 349  
Cooling Degree Days 0 0  
Month to date cooling degree days 0 0  
Year to date cooling degree days 1337 1191  
Growing Degree Days 10 (Base 50)    
Moisture  
Dew Point 45 °F    
Average Humidity 65    
Maximum Humidity 87    
Minimum Humidity 42    
Precipitation  
Precipitation T in 0.12 in 1.31 in (1954)
Month to date precipitation 0.13 0.24  
Year to date precipitation 35.48 39.03  
Snow  
Snow 0.00 in 0.00 in T in (2002)
Month to date snowfall 0.0 0.0  
Since 1 July snowfall 0.0 0.0  
Snow Depth 0.00 in    
Sea Level Pressure  
Sea Level Pressure 29.68 in    
Wind  
Wind Speed 6 mph (NW)    
Max Wind Speed 16 mph    
Max Gust Speed 31 mph    
Visibility 10 miles    
Events      
T = Trace of Precipitation, MM = Missing Value Source: NWS Daily Summary

Daily Weather History Graph

Daily Weather History Graph

Search for Another Location

Airport or City:

Trip Planner

Search our weather history database for the weather conditions in past years. The results will help you decide how hot, cold, wet, or windy it might be!

Date:

Astronomy

Nov. 02, 2013 Rise Set
Actual Time 7:28 AM EDT 5:51 PM EDT
Civil Twilight 6:59 AM EDT 6:20 PM EDT
Nautical Twilight 6:27 AM EDT 6:52 PM EDT
Astronomical Twilight 5:55 AM EDT 7:24 PM EDT
Moon 6:22 AM EDT (11/2) 5:21 PM EDT (11/2)
Length of Visible Light 11h 20m
Length of Day
10h 23m
Waning Crescent, 1% of the Moon is Illuminated
Nov 2
Waning Crescent
Nov 3
New
Nov 10
First Quarter
Nov 17
Full
Nov 25
Last Quarter

Hourly Weather History & Observations

Time (EDT) Temp. Dew Point Humidity Pressure Visibility Wind Dir Wind Speed Gust Speed Precip Events Conditions
12:51 AM 59.0 °F 55.9 °F 90% 29.67 in 10.0 mi NNW 5.8 mph - N/A   Scattered Clouds
1:51 AM 57.0 °F 52.0 °F 83% 29.65 in 10.0 mi NNW 6.9 mph - N/A   Partly Cloudy
2:51 AM 55.9 °F 46.0 °F 69% 29.65 in 10.0 mi North 4.6 mph - N/A   Mostly Cloudy
3:51 AM 55.9 °F 46.0 °F 69% 29.64 in 10.0 mi NE 3.5 mph - N/A   Mostly Cloudy
4:51 AM 55.0 °F 46.9 °F 74% 29.66 in 10.0 mi NNE 4.6 mph - N/A   Mostly Cloudy
5:51 AM 52.0 °F 46.9 °F 83% 29.65 in 10.0 mi North 6.9 mph - N/A   Mostly Cloudy
6:51 AM 54.0 °F 48.0 °F 80% 29.67 in 10.0 mi NNE 4.6 mph - N/A   Mostly Cloudy
7:51 AM 55.0 °F 48.9 °F 80% 29.69 in 10.0 mi Calm Calm - N/A   Mostly Cloudy
8:51 AM 57.0 °F 48.9 °F 74% 29.69 in 10.0 mi North 4.6 mph - N/A   Mostly Cloudy
9:51 AM 57.9 °F 48.9 °F 72% 29.69 in 10.0 mi ESE 3.5 mph - N/A   Mostly Cloudy
10:51 AM 60.1 °F 48.0 °F 64% 29.68 in 10.0 mi Calm Calm - N/A   Mostly Cloudy
11:51 AM 64.0 °F 46.9 °F 54% 29.66 in 10.0 mi Calm Calm - N/A   Mostly Cloudy
12:51 PM 66.0 °F 45.0 °F 47% 29.66 in 10.0 mi SSE 4.6 mph - N/A   Scattered Clouds
1:51 PM 66.9 °F 42.1 °F 40% 29.64 in 10.0 mi Variable 5.8 mph - N/A   Scattered Clouds
2:51 PM 66.9 °F 44.1 °F 44% 29.63 in 10.0 mi SE 5.8 mph - N/A   Mostly Cloudy
3:51 PM 66.9 °F 43.0 °F 42% 29.63 in 10.0 mi West 11.5 mph - N/A   Mostly Cloudy
4:51 PM 64.9 °F 43.0 °F 45% 29.64 in 10.0 mi WNW 13.8 mph 25.3 mph 0.00 in   Mostly Cloudy
5:51 PM 63.0 °F 44.1 °F 50% 29.68 in 10.0 mi WNW 11.5 mph 31.1 mph N/A   Mostly Cloudy
6:51 PM 61.0 °F 41.0 °F 48% 29.70 in 10.0 mi WNW 9.2 mph 16.1 mph N/A   Scattered Clouds
7:51 PM 60.1 °F 39.9 °F 47% 29.72 in 10.0 mi WNW 9.2 mph - N/A   Scattered Clouds
8:51 PM 57.9 °F 39.0 °F 49% 29.75 in 10.0 mi West 9.2 mph 21.9 mph N/A   Scattered Clouds
9:51 PM 55.9 °F 39.0 °F 53% 29.77 in 10.0 mi West 8.1 mph - N/A   Scattered Clouds
10:51 PM 54.0 °F 39.0 °F 57% 29.79 in 10.0 mi West 4.6 mph - N/A   Scattered Clouds
11:51 PM 54.0 °F 39.0 °F 57% 29.79 in 10.0 mi WNW 5.8 mph - N/A   Mostly Cloudy